Location: Pinawa
(50.1500°N, 95.8830°W)
Time: 18:46:07
(UTC-06:00)

Daily predictions for brighter satellites

Satellite Brightness Start Highest point End
(mag) Time Altitude Azimuth Time Altitude Azimuth Time Altitude Azimuth
Orbus 7S? 4.2 17:20:36 10° NW 17:23:11 28° N 17:27:13 10° ENE
ATLAS 5 CENTAUR R/B 3.5 17:20:55 10° WNW 17:25:11 25° NNW 17:29:48 10° NE
COSMOS 2455 3.5 17:21:12 10° WSW 17:27:06 53° NW 17:33:02 10° NNE
Cosmos 2278 Rocket 3.1 17:22:18 10° NNW 17:27:07 27° NE 17:31:53 10° E
CORIOLIS 4.2 17:22:44 10° SSE 17:27:59 60° ENE 17:33:17 10° N
Ariane Rocket 4.2 17:23:20 10° S 17:28:13 47° W 17:33:08 10° NNW
Cosmos 2322 Rocket 2.4 17:22:36 10° SSW 17:28:18 79° WNW 17:34:01 10° NNE
BREEZE M DEB (TANK) 2.1 17:24:55 10° W 17:30:08 77° SSW 17:32:28 10° ESE
Cosmos 1908 3.8 17:27:27 10° N 17:31:03 36° ENE 17:34:39 10° SE
YAOGAN 1 2.6 17:26:55 10° SSE 17:31:10 58° ENE 17:35:27 10° N
Cosmos 2219 Rocket 3.8 17:28:30 10° SE 17:31:21 14° E 17:34:11 10° ENE
CZ-2C R/B 3.9 17:28:11 10° NNE 17:32:58 86° ESE 17:37:45 10° SSW
Cosmos 1844 4.1 17:31:48 10° NNW 17:37:18 44° NE 17:42:48 10° ESE
CENTAUR R/B 3.5 17:32:36 10° S 17:37:50 30° ESE 17:43:36 10° NE
Cosmos 389 Rocket 2.6 17:35:51 10° N 17:39:25 52° ENE 17:42:56 10° SSE
EO 1 Del DPAF 4.2 17:37:00 10° N 17:40:46 50° WNW 17:44:30 10° SW
Cosmos 1484 Rocket 3.3 17:38:39 10° SE 17:42:19 39° ENE 17:46:03 10° N
Cosmos 1408 Rocket 3.9 17:38:25 10° SSE 17:42:41 46° E 17:46:57 10° NNE
CZ-4 R/B 1.5 17:40:14 10° S 17:44:07 76° WSW 17:48:02 10° NNW
Tsikada Rocket 4.2 17:39:09 10° SSE 17:45:16 52° E 17:51:29 10° NNE
USA 116 3.5 17:42:27 10° NNE 17:45:49 49° E 17:48:54 10° S
Cosmos 1570 Rocket 4.5 17:41:14 10° SW 17:46:33 66° WNW 17:51:54 10° NNE
Cosmos 2285 Rocket 4.3 17:40:48 10° SSW 17:47:06 72° WNW 17:53:29 10° NNE
Lacrosse 5 rocket 1.8 17:44:18 10° NW 17:47:45 36° NNE 17:50:59 12° E
MOS 1 4.4 17:42:52 10° SSE 17:48:33 88° WSW 17:54:16 10° NNW
COSMOS 2428 3.5 17:44:18 10° SSE 17:49:21 33° ESE 17:54:26 10° NE
Cosmos 1174 3.3 17:47:36 10° SW 17:50:34 73° NW 17:53:47 10° NE
Okean 3 Rocket 3.9 17:47:00 10° SSW 17:51:25 72° WNW 17:55:56 10° N
Cosmos 1674 3.3 17:49:15 10° SSE 17:52:45 35° E 17:56:17 10° NNE
Meteor 2-2 Rocket 4.3 17:49:44 10° N 17:55:17 53° ENE 18:00:47 10° SSE
ALOS 3.7 17:54:08 10° E 17:57:07 17° ENE 18:00:07 10° NNE
Cosmos 2369 Rocket 4.2 17:57:31 10° N 17:58:26 10° NNE 17:59:21 10° NNE
CZ-4C R/B 3.7 17:53:51 10° WNW 17:58:56 29° NNW 18:04:38 10° NE
Cosmos 2237 Rocket 3.8 17:56:03 10° SE 17:58:56 14° E 18:00:18 13° E
Cosmos 1300 3.6 17:57:54 10° NNE 18:01:13 26° ENE 18:04:28 10° SE
Cosmos 1743 Rocket 4.1 17:59:03 10° SSE 18:03:11 38° E 18:07:20 10° NNE
Lacrosse 5 1.9 17:58:13 10° WSW 18:03:20 88° NW 18:07:33 15° ENE
CZ-2C R/B 3.2 17:59:03 10° S 18:04:00 58° W 18:08:49 10° NNW
Cosmos 1328 Rocket 3.5 18:01:59 10° N 18:06:24 65° ENE 18:10:48 10° SSE
Cosmos 1763 Rocket 3.9 18:03:35 10° S 18:08:29 43° ESE 18:13:07 11° NE
Cosmos 1515 Rocket 3.6 18:06:28 10° N 18:10:54 55° ENE 18:15:17 10° SSE
Cosmos 1634 Rocket 4.0 18:05:20 10° N 18:11:29 58° ENE 18:17:33 10° SSE
SKYMED 2 4.0 18:08:03 10° NNE 18:12:12 41° E 18:16:19 10° S
Cosmos 372 Rocket 4.4 18:08:41 10° NNW 18:13:26 37° NE 18:18:09 10° ESE
Cosmos 1726 2.6 18:11:37 10° N 18:15:08 36° ENE 18:18:38 10° SE
Cosmos 2058 4.4 18:13:23 10° SE 18:15:33 18° E 18:15:33 18° E
NOAA 12 4.3 18:12:51 10° SE 18:17:53 49° ENE 18:22:56 10° N
Cosmos 2322 3.7 18:12:37 10° SSW 18:18:18 88° WNW 18:24:04 10° NNE
Thor Agena Rocket 3.6 18:14:20 10° NNE 18:19:40 90° S 18:24:53 10° SSW
SMAP 4.3 18:15:42 10° S 18:20:09 44° W 18:24:39 10° NNW
SJ-6B 3.3 18:21:52 10° SE 18:25:41 40° ENE 18:29:34 10° N
Meteor 1-28 Rocket 3.6 18:24:54 21° NE 18:26:54 38° E 18:30:24 10° SSE
SL-16 R/B 3.5 18:21:53 10° WSW 18:27:05 36° NW 18:32:19 10° NNE
Cosmos 1151 Rocket 3.0 18:24:53 10° N 18:29:06 57° ENE 18:33:19 10° SSE
Meteor 1-21 Rocket 4.4 18:24:19 10° SSW 18:30:14 86° W 18:36:10 10° NNE
Cosmos 1844 Rocket 3.0 18:24:51 10° NNW 18:30:31 70° WSW 18:36:08 10° SSE
Cosmos 1500 Rocket 3.6 18:26:40 10° S 18:30:51 51° E 18:34:56 11° NNE
Cosmos 2151 3.6 18:27:13 10° SSE 18:31:00 33° E 18:32:22 26° NE
Cosmos 2333 4.2 18:27:17 10° S 18:32:46 59° ESE 18:36:53 18° NE
Cosmos 1125 Rocket 3.4 18:28:53 10° NNW 18:34:07 70° ENE 18:39:18 10° SSE
IDEFIX/ARIANE 42P 4.4 18:29:48 10° SSW 18:34:30 34° W 18:39:15 10° NNW
Cosmos 540 Rocket 4.3 18:30:43 10° SSE 18:35:03 28° E 18:35:55 26° E
Cosmos 1814 Rocket 4.1 18:32:37 10° SSW 18:37:58 80° WNW 18:43:20 10° NNE
USA 215 3.9 18:31:35 10° SE 18:38:00 55° SW 18:44:26 10° WNW
ATLAS 3B R/B 4.0 18:32:25 10° WNW 18:38:52 31° NNW 18:43:45 15° NE
BREEZE-M DEB (TANK) 3.6 18:37:31 10° S 18:38:42 14° SSE 18:38:42 14° SSE
Cosmos 1980 4.3 18:40:06 10° S 18:45:09 34° ESE 18:46:34 30° ENE
Cosmos 2360 Rocket 2.8 18:40:36 10° SW 18:46:05 54° NW 18:51:22 11° NNE
Resurs 01 Rocket 2.0 18:45:27 31° ESE 18:46:43 39° ENE 18:50:52 10° N
Cosmos 1980 Rocket 4.4 18:44:36 10° WNW 18:47:56 16° NNW 18:51:18 10° N
NOSS 3-2 (A) 4.4 18:41:57 10° WSW 18:47:59 46° NNW 18:53:05 17° NE
NOSS 3-2 (C) 4.2 18:44:26 10° WSW 18:50:33 51° NW 18:55:34 18° NE
Spot 2 Rocket 3.7 18:47:00 10° SE 18:51:49 46° ENE 18:56:38 10° N
Cosmos 2333 Rocket 2.5 18:47:41 10° S 18:53:02 45° ESE 18:54:55 33° ENE
Meteor 1-27 4.2 18:48:40 10° N 18:54:28 72° ENE 19:00:17 10° SSE
Timation 1 Rocket 4.4 18:49:27 10° NNW 18:55:25 57° NE 18:58:51 25° ESE
NOSS 0 Rocket 4.2 18:51:16 10° S 18:57:09 47° ESE 18:59:24 33° ENE
COSMO-SKYMED 1 2.8 18:55:57 10° N 19:00:18 68° WNW 19:04:36 10° SSW
Cosmos 841 Rocket 3.5 18:55:05 10° SSW 19:00:23 89° WNW 19:04:01 21° NNE
Transit 2A Rocket 4.3 18:57:30 10° NW 19:01:56 75° NE 19:03:09 46° SE
Resurs 1-3 4.3 19:04:57 37° NNE 19:04:57 37° NNE 19:08:03 10° N
FENGYUN 3A 3.6 19:00:27 10° SSE 19:05:42 61° ENE 19:11:01 10° N
Cosmos 2279 Rocket 3.9 19:00:01 10° N 19:06:15 85° E 19:12:30 10° S
Cosmos 332 Rocket 3.7 19:05:30 10° SSW 19:10:20 84° WNW 19:12:40 31° NNE
SL-14 R/B 3.1 19:06:44 10° S 19:10:39 82° E 19:10:59 72° NE
ATLAS 5 CENTAUR R/B 3.7 19:07:32 10° NW 19:11:41 21° N 19:12:39 21° NNE
Cosmos 2278 Rocket 2.4 19:06:05 10° NNW 19:11:46 73° WSW 19:17:25 10° SSE
Cosmos 2322 Rocket 4.3 19:09:04 10° W 19:13:18 21° NW 19:17:32 10° N
Cosmos 2219 Rocket 2.1 19:08:44 10° SSW 19:14:23 79° ESE 19:16:42 37° NE
Cosmos 2180 Rocket 4.4 19:13:46 10° N 19:19:57 89° ENE 19:26:09 10° S
Lacrosse 4 Rocket 3.5 19:18:57 10° NNW 19:20:08 16° N 19:20:08 16° N
Meteor 2-10 4.2 19:19:27 10° NNW 19:24:29 69° W 19:29:35 10° S
Cosmos 836 Rocket 4.4 19:19:44 10° SSW 19:24:59 85° WNW 19:26:54 41° NNE
Lacrosse 5 rocket 1.5 19:23:25 10° WNW 19:26:44 62° W 19:26:44 62° W
CENTAUR R/B 2.7 19:21:35 10° SW 19:27:53 73° NW 19:31:08 34° NE
Cosmos 1943 Rocket 4.2 19:28:55 10° N 19:30:23 13° N 19:30:23 13° N
Nadezhda 4 Rocket 4.1 19:26:19 10° SSE 19:40:43 - NNE 19:31:43 53° ESE
COSMOS 2428 3.5 19:27:54 10° SW 19:33:27 50° NW 19:36:42 24° NNE
ALOS 2.3 19:29:31 11° S 19:34:00 78° WSW 19:38:43 10° NNW
Cosmos 44 4.1 19:35:46 10° SSW 19:39:29 42° S 19:39:29 42° S
Cosmos 371 Rocket 3.7 19:37:01 10° SW 19:41:47 61° WNW 19:42:36 52° NNW
Cosmos 2237 Rocket 2.0 19:36:27 10° SSW 19:42:04 80° ESE 19:42:11 80° E
DNEPR-1 R/B 4.1 19:35:46 10° SW 19:42:27 81° SE 19:42:54 75° ENE
Cosmos 2369 Rocket 3.8 19:39:53 10° NNW 19:42:24 21° N 19:42:24 21° N
SL-16 R/B 4.0 19:40:02 10° S 19:41:30 18° S 19:41:30 18° S
Lacrosse 5 2.7 19:41:56 10° W 19:46:46 42° NNW 19:46:46 42° NNW
Cosmos 2297 3.7 19:42:43 10° NNW 19:48:26 77° WSW 19:49:33 58° S
CZ-4C R/B 3.8 19:44:08 10° NW 19:49:29 27° N 19:49:50 27° NNE
Cosmos 2058 4.1 19:48:51 10° SSW 19:51:51 39° WSW 19:51:51 39° WSW
Cosmos 44 Rocket 3.8 19:55:03 10° SW 19:59:14 58° WSW 19:59:14 58° WSW
Orbus 7S? 4.4 20:05:19 10° WNW 20:08:52 69° W 20:08:52 69° W
Cosmos 540 Rocket 4.4 20:11:24 10° SW 20:15:49 47° W 20:15:49 47° W
Resurs 01 Rocket 3.5 20:23:00 27° WSW 20:23:18 28° W 20:27:09 10° NW
CZ-3A R/B 4.2 20:25:20 10° WNW 20:29:27 31° SW 20:29:46 30° SW
Cosmos 2360 Rocket 4.5 20:28:04 10° WNW 20:31:27 16° NNW 20:33:10 14° N
ATLAS 3B R/B 4.1 20:25:39 10° NW 20:31:01 28° N 20:31:01 28° N
Cosmos 2333 Rocket 3.4 20:32:08 10° WSW 20:36:58 38° WNW 20:36:58 38° WNW
ATLAS 5 CENTAUR R/B 4.3 20:52:34 10° NW 20:54:12 19° NNW 20:54:12 19° NNW
Cosmos 2219 Rocket 4.1 20:54:22 10° W 20:58:28 25° NW 20:58:28 25° NW
CENTAUR R/B 4.2 21:13:47 10° W 21:18:21 31° NW 21:18:21 31° NW
